Weather History for Farmington, NM

Change the Weather History Date:

Friday, August 17, 2012

  Actual Average Record
Temperature  
Mean Temperature 78 °F -  
Max Temperature 90 °F 86 °F 98 °F (2002)
Min Temperature 66 °F 57 °F 52 °F (1987)
Cooling Degree Days 13    
Growing Degree Days 28 (Base 50)    
Moisture  
Dew Point 48 °F    
Average Humidity 35    
Maximum Humidity 52    
Minimum Humidity 13    
Precipitation  
Precipitation 0.00 in - - ()
Sea Level Pressure  
Sea Level Pressure 29.96 in    
Wind  
Wind Speed 10 mph (ENE)    
Max Wind Speed 26 mph    
Max Gust Speed 37 mph    
Visibility 10 miles    
Events      
Averages and records for this station are not official NWS values.
T = Trace of Precipitation, MM = Missing Value Source: NWS Daily Summary

Daily Weather History Graph

Daily Weather History Graph

Search for Another Location

Airport:

Trip Planner

Search our weather history database for the weather conditions in past years. The results will help you decide how hot, cold, wet, or windy it might be!

Date:

Astronomy

Aug. 17, 2012 Rise Set
Actual Time 6:32 AM MDT 8:00 PM MDT
Civil Twilight 6:04 AM MDT 8:28 PM MDT
Nautical Twilight 5:32 AM MDT 9:00 PM MDT
Astronomical Twilight 4:57 AM MDT 9:35 PM MDT
Moon 6:36 AM MDT (8/17) 7:48 PM MDT (8/17)
Length of Visible Light 14h 23m
Length of Day
13h 28m
New Moon, 0% of the Moon is Illuminated
Aug 17
New Moon
Aug 24
First Quarter
Aug 31
Full
Sep 8
Last Quarter
Sep 15
New

Hourly Weather History & Observations

Time (MDT) Temp. Dew Point Humidity Pressure Visibility Wind Dir Wind Speed Gust Speed Precip Events Conditions
12:53 AM 72.0 °F 51.1 °F 48% 29.98 in 10.0 mi East 10.4 mph - N/A   Clear
1:53 AM 73.0 °F 50.0 °F 44% 29.97 in 10.0 mi East 15.0 mph - N/A   Clear
2:53 AM 72.0 °F 50.0 °F 46% 29.97 in 10.0 mi East 10.4 mph - N/A   Clear
3:53 AM 71.1 °F 50.0 °F 47% 29.98 in 10.0 mi East 15.0 mph - N/A   Clear
4:53 AM 71.1 °F 50.0 °F 47% 29.98 in 10.0 mi East 10.4 mph - N/A   Clear
5:53 AM 68.0 °F 50.0 °F 52% 29.99 in 10.0 mi East 6.9 mph - N/A   Clear
6:53 AM 66.9 °F 48.9 °F 52% 30.01 in 10.0 mi East 6.9 mph - N/A   Clear
8:53 AM 71.1 °F 50.0 °F 47% 30.04 in 10.0 mi East 5.8 mph - N/A   Clear
9:53 AM 73.9 °F 50.0 °F 43% 30.04 in 10.0 mi Variable 4.6 mph - N/A   Clear
10:53 AM 78.1 °F 50.0 °F 37% 30.02 in 10.0 mi East 6.9 mph - N/A   Clear
11:53 AM 82.0 °F 48.0 °F 30% 30.00 in 10.0 mi NE 5.8 mph - N/A   Clear
12:53 PM 84.0 °F 46.0 °F 26% 29.98 in 10.0 mi NNW 4.6 mph - N/A   Clear
1:53 PM 87.1 °F 46.0 °F 24% 29.94 in 10.0 mi Variable 5.8 mph - N/A   Clear
2:53 PM 87.1 °F 44.1 °F 22% 29.90 in 10.0 mi Variable 5.8 mph - N/A   Clear
3:53 PM 88.0 °F 45.0 °F 22% 29.87 in 10.0 mi Calm Calm - N/A   Clear
4:53 PM 88.0 °F 44.1 °F 22% 29.87 in 10.0 mi NE 20.7 mph 36.8 mph N/A   Clear
5:05 PM 84.2 °F 46.4 °F 27% 30.09 in 10.0 mi NNE 26.5 mph 35.7 mph N/A   Clear
5:53 PM 84.0 °F 48.0 °F 28% 29.88 in 10.0 mi North 17.3 mph 25.3 mph N/A   Clear
6:53 PM 82.0 °F 42.1 °F 24% 29.90 in 10.0 mi NNE 20.7 mph 26.5 mph N/A   Clear
7:53 PM 80.1 °F 42.1 °F 26% 29.89 in 10.0 mi NNE 15.0 mph 26.5 mph N/A   Clear
8:53 PM 73.9 °F 46.0 °F 37% 29.94 in 10.0 mi NE 4.6 mph - N/A   Clear
9:53 PM 73.9 °F 45.0 °F 35% 29.96 in 10.0 mi Calm Calm - N/A   Clear
10:53 PM 72.0 °F 46.0 °F 40% 29.97 in 10.0 mi East 6.9 mph - N/A   Clear
11:53 PM 69.1 °F 48.9 °F 49% 29.96 in 10.0 mi ENE 5.8 mph - N/A   Clear